GW6047 Weather Reports


time (UTC)temp
F
wind
direction
speed
knots
gust
knots
rain 1hr
in
rain 24hr
in
rain mn
in
humidity
%
barometer
mb
20260509163646 53 202 0.0 0.0 0.12 0.24 0.24 96 1009.8
20260509163141 53 205 0.9 0.9 0.19 0.23 0.23 96 1009.8
20260509162639 53 195 0.0 0.0 0.17 0.22 0.22 96 1009.7
20260509162134 53 202 0.0 0.0 0.12 0.21 0.21 96 1009.9
20260509161631 53 198 0.9 0.9 0.07 0.19 0.19 95 1009.8
20260509161126 53 196 1.7 1.7 0.07 0.19 0.19 95 1010.0
20260509160622 53 199 1.7 1.7 0.05 0.18 0.18 95 1009.7
20260509160118 53 206 0.9 1.7 0.05 0.18 0.18 95 1009.8
20260509155614 53 198 1.7 2.6 0.00 0.17 0.17 95 1009.7
20260509155110 53 209 0.9 1.7 0.07 0.17 0.17 95 1009.8
20260509154606 53 210 0.0 0.9 0.07 0.17 0.17 95 1009.8
20260509154104 53 200 0.0 0.0 0.00 0.16 0.16 95 1009.7
20260509153601 53 184 0.0 0.0 0.00 0.16 0.16 96 1009.8
20260509153057 53 209 1.7 1.7 0.00 0.16 0.16 95 1009.7
20260509152553 53 210 0.9 1.7 0.05 0.16 0.16 95 1009.8
20260509152051 53 200 0.0 0.0 0.05 0.16 0.16 96 1009.9
20260509151547 53 195 0.0 0.0 0.07 0.15 0.15 95 1010.1
20260509151045 53 198 0.0 0.9 0.07 0.15 0.15 95 1010.0
20260509150542 53 202 0.0 0.9 0.07 0.15 0.15 94 1010.1
20260509150041 52 207 1.7 1.7 0.07 0.14 0.14 94 1009.9
20260509145536 52 208 1.7 1.7 0.07 0.14 0.14 94 1010.3
20260509145031 53 220 1.7 1.7 0.05 0.13 0.13 94 1010.1
20260509144528 53 203 0.0 0.9 0.05 0.13 0.13 94 1010.1
20260509144025 53 202 0.0 0.0 0.07 0.12 0.12 94 1010.2
20260509143522 53 205 0.0 0.0 0.12 0.12 0.12 94 1010.1
20260509143020 52 203 0.0 0.0 0.12 0.11 0.11 93 1010.0
20260509142515 53 207 0.9 0.9 0.12 0.10 0.10 94 1010.1
20260509142011 53 203 0.9 0.9 0.05 0.09 0.09 94 1010.2
20260509141508 53 211 0.9 0.9 0.05 0.09 0.09 94 1010.2
20260509141004 53 229 1.7 2.6 0.07 0.08 0.08 93 1010.2
20260509140500 53 202 0.9 0.9 0.05 0.07 0.07 94 1010.2
20260509135959 52 203 0.0 0.9 0.05 0.07 0.07 93 1010.3
20260509135456 53 201 0.0 0.0 0.07 0.06 0.06 93 1010.5
20260509134953 52 203 0.0 0.0 0.07 0.06 0.06 93 1010.2
20260509134451 53 204 0.9 0.9 0.07 0.06 0.06 93 1010.0
20260509133948 53 207 0.0 0.0 0.05 0.05 0.05 93 1009.9
20260509133445 53 204 0.0 0.0 0.05 0.05 0.05 93 1010.0
20260509132943 52 203 0.0 0.0 0.00 0.04 0.04 94 1010.2
20260509132441 52 202 0.0 0.0 0.00 0.04 0.04 93 1010.2
20260509131937 52 200 0.0 0.0 0.07 0.04 0.04 93 1010.1
20260509131435 52 201 0.0 0.0 0.07 0.04 0.04 93 1010.3
20260509130931 52 205 0.9 0.9 0.05 0.03 0.03 93 1010.2
20260509130426 52 205 0.0 0.0 0.05 0.03 0.03 92 1010.2
20260509125924 52 195 0.9 0.9 0.00 0.02 0.02 92 1010.2
20260509125420 52 203 0.0 0.0 0.07 0.02 0.02 93 1010.2
20260509124916 51 207 0.0 0.0 0.07 0.02 0.02 92 1010.2
20260509124414 51 199 0.0 0.9 0.00 0.01 0.01 94 1010.2
20260509123911 51 95 0.9 0.9 0.00 0.01 0.01 94 1010.2
20260509123408 51 196 0.0 0.9 0.00 0.01 0.01 95 1009.9
20260509122904 51 190 0.0 0.9 0.00 0.01 0.01 95 1010.1
20260509122401 51 212 0.9 0.9 0.00 0.01 0.01 96 1010.1
20260509121858 51 148 0.9 0.9 0.00 0.01 0.01 96 1010.2
20260509121355 51 189 0.0 0.9 0.00 0.01 0.01 96 1010.5
20260509120853 51 205 0.0 0.0 0.00 0.01 0.01 96 1010.3
20260509120350 51 200 0.0 0.0 0.00 0.01 0.01 96 1010.6
20260509115848 51 199 0.0 0.0 0.00 0.01 0.01 96 1010.7
20260509115345 51 203 0.0 0.0 0.00 0.01 0.01 96 1010.4
20260509114843 50 201 0.0 0.0 0.00 0.01 0.01 96 1010.5
20260509114341 50 201 0.0 0.0 0.00 0.01 0.01 97 1010.4
20260509113840 50 200 0.0 0.0 0.00 0.01 0.01 97 1010.7
20260509113337 50 201 0.0 0.0 0.07 0.01 0.01 97 1010.3
20260509112834 50 204 0.0 0.9 0.07 0.01 0.01 97 1010.6
20260509112331 50 204 0.9 0.9 0.00 0.00 0.00 97 1010.5
20260509111828 50 197 0.0 0.0 0.00 0.00 0.00 97 1010.5
20260509111325 50 203 0.0 0.0 0.00 0.00 0.00 97 1010.5
20260509110823 50 200 0.0 0.0 0.00 0.00 0.00 97 1010.4
20260509110319 50 216 0.9 0.9 0.00 0.00 0.00 97 1010.1
20260509105817 49 200 0.0 0.0 0.00 0.00 0.00 97 1010.2
20260509105315 49 194 0.0 0.0 0.00 0.00 0.00 97 1010.0
20260509104811 49 202 0.0 0.0 0.00 0.00 0.00 97 1009.9
20260509104308 49 192 0.9 0.9 0.00 0.00 0.00 97 1010.0
20260509103806 49 200 0.9 0.9 0.00 0.00 0.00 97 1010.1
20260509103303 49 207 0.0 0.0 0.00 0.00 0.00 97 1009.8
20260509102801 49 209 0.9 0.9 0.00 0.00 0.00 97 1009.8
20260509102258 49 206 0.0 0.0 0.00 0.00 0.00 97 1009.6
20260509101754 49 200 0.0 0.0 0.00 0.00 0.00 97 1009.7
20260509101250 49 210 0.9 0.9 0.00 0.00 0.00 97 1009.9
20260509100748 49 200 0.0 0.0 0.00 0.00 0.00 97 1009.9
20260509100246 49 210 0.9 0.9 0.00 0.00 0.00 97 1009.9
20260509095741 49 198 0.0 0.0 0.00 0.00 0.00 97 1010.0
20260509095239 49 203 0.0 0.0 0.00 0.00 0.00 97 1009.7
20260509094736 49 206 0.0 0.9 0.00 0.00 0.00 97 1009.8
20260509094233 49 202 0.0 0.0 0.00 0.00 0.00 97 1009.6
20260509093731 49 206 0.9 0.9 0.00 0.00 0.00 97 1009.8
20260509093228 49 199 0.0 0.0 0.00 0.00 0.00 97 1009.7
20260509092726 49 203 0.0 0.0 0.00 0.00 0.00 97 1009.6
20260509092224 49 206 0.0 0.0 0.00 0.00 0.00 96 1009.9
20260509091722 49 201 0.0 0.0 0.00 0.00 0.00 96 1009.8
20260509091217 49 205 0.9 1.7 0.00 0.00 0.00 96 1009.9
20260509090715 49 200 0.0 0.0 0.00 0.00 0.00 96 1010.0
20260509090212 49 208 0.9 0.9 0.00 0.00 0.00 96 1009.9
20260509085710 49 201 0.0 0.0 0.00 0.00 0.00 96 1010.0
20260509085207 49 203 0.0 0.0 0.00 0.00 0.00 96 1009.8
20260509084703 49 197 0.0 0.0 0.00 0.00 0.00 95 1010.1
20260509084200 49 197 0.0 0.0 0.00 0.00 0.00 95 1010.1
20260509083658 49 206 1.7 1.7 0.00 0.00 0.00 95 1010.4
20260509083154 49 202 0.0 0.0 0.00 0.00 0.00 95 1010.1
20260509082651 49 203 0.0 0.9 0.00 0.00 0.00 95 1010.1
20260509082148 49 194 0.0 0.0 0.00 0.00 0.00 95 1010.1
20260509081645 49 215 0.9 0.9 0.00 0.00 0.00 95 1010.1
20260509081142 49 200 0.0 0.0 0.00 0.00 0.00 95 1010.0
20260509080640 49 210 0.0 0.9 0.00 0.00 0.00 95 1010.2
20260509080138 49 196 0.0 0.0 0.00 0.00 0.00 94 1010.0
20260509075636 49 204 0.0 0.0 0.00 0.00 0.00 94 1009.9
20260509075133 49 200 0.0 0.0 0.00 0.00 0.00 94 1010.1
20260509074630 49 227 0.9 1.7 0.00 0.00 0.00 94 1010.0
20260509074126 50 203 0.0 0.0 0.00 0.00 0.00 94 1009.9
20260509073623 50 207 0.0 0.0 0.00 0.00 0.00 94 1009.8
20260509073119 50 198 0.0 0.0 0.00 0.00 0.00 94 1009.9
20260509072616 50 127 1.7 1.7 0.00 0.00 0.00 94 1009.9
20260509072113 50 203 0.0 0.0 0.00 0.00 0.00 94 1010.1
20260509071610 50 185 0.9 0.9 0.00 0.00 0.00 94 1010.3
20260509071107 50 203 0.0 0.0 0.00 0.00 0.00 94 1010.2
20260509070604 50 201 0.0 0.0 0.00 0.00 0.00 94 1010.1
20260509070100 50 204 0.0 0.0 0.00 0.00 0.00 94 1010.1
20260509065556 50 194 0.0 0.0 0.00 0.00 0.00 94 1010.2
20260509065052 50 200 0.0 0.0 0.00 0.00 0.00 94 1010.3
20260509064550 50 203 0.9 0.9 0.00 0.00 0.00 93 1010.4
20260509064048 50 205 0.0 0.0 0.00 0.00 0.00 93 1010.6
20260509063543 50 199 0.0 0.9 0.00 0.00 0.00 93 1010.5
20260509063041 50 204 0.0 0.0 0.00 0.00 0.00 93 1010.8
20260509062538 50 198 0.0 0.0 0.00 0.00 0.00 93 1010.5
20260509062035 50 210 0.0 0.0 0.00 0.00 0.00 93 1010.9
20260509061532 50 216 0.9 0.9 0.00 0.00 0.00 93 1011.1
20260509061029 50 214 1.7 1.7 0.00 0.00 0.00 93 1011.1
20260509060527 50 194 0.9 1.7 0.00 0.00 0.00 93 1011.1
20260509060023 50 202 0.0 0.0 0.00 0.00 0.00 93 1011.2
20260509055518 50 205 0.0 0.0 0.00 0.00 0.00 93 1010.8
20260509055014 50 199 0.0 0.0 0.00 0.00 0.00 93 1011.1
20260509054511 51 206 0.0 0.9 0.00 0.00 0.00 93 1011.2
20260509054009 51 205 0.0 0.9 0.00 0.00 0.00 93 1011.4
20260509053508 51 199 0.0 0.0 0.00 0.00 0.00 93 1011.7
20260509053004 51 202 0.0 0.0 0.00 0.00 0.00 93 1011.6
20260509052502 51 203 0.0 0.0 0.00 0.00 0.00 92 1011.4
20260509051959 51 202 0.0 0.0 0.00 0.00 0.00 92 1011.7
20260509051457 51 205 0.0 0.0 0.00 0.00 0.00 92 1011.7
20260509050954 51 202 0.0 0.0 0.00 0.00 0.00 92 1011.7
20260509050450 51 203 0.0 0.0 0.00 0.00 0.00 92 1011.4
20260509045947 51 195 0.0 0.0 0.00 0.00 0.00 92 1011.4
20260509045444 51 199 0.0 0.0 0.00 0.00 0.00 92 1011.9
20260509044941 51 197 0.0 0.0 0.00 0.00 0.00 91 1011.7
20260509044439 51 202 0.9 0.9 0.00 0.00 0.00 90 1011.8
20260509043936 51 203 0.0 0.9 0.00 0.00 0.00 91 1011.4
20260509043432 51 200 0.0 0.0 0.00 0.00 0.00 91 1011.6
20260509042927 51 199 0.0 0.0 0.00 0.00 0.00 90 1011.8
20260509042425 51 192 0.0 0.0 0.00 0.00 0.00 90 1011.6
20260509041921 51 202 0.0 0.0 0.00 0.00 0.00 90 1011.7
20260509041418 51 197 0.0 0.0 0.00 0.00 0.00 89 1012.0
20260509040916 51 202 0.0 0.0 0.00 0.00 0.00 90 1011.8
20260509040414 51 170 0.9 0.9 0.00 0.00 0.00 90 1011.7
20260509035910 51 210 0.9 0.9 0.00 0.01 0.01 91 1011.9
20260509035407 51 196 0.0 0.9 0.00 0.01 0.01 91 1011.4
20260509034903 51 199 0.0 0.0 0.00 0.01 0.01 91 1011.6
20260509034401 51 200 0.9 0.9 0.00 0.01 0.01 91 1011.6
20260509033858 51 200 1.7 1.7 0.00 0.01 0.01 91 1011.1
20260509033355 51 201 1.7 1.7 0.00 0.01 0.01 90 1011.1
20260509032852 51 206 1.7 1.7 0.00 0.01 0.01 90 1010.9
20260509032349 51 212 0.9 0.9 0.00 0.01 0.01 90 1011.4
20260509031847 52 204 0.0 0.0 0.00 0.01 0.01 90 1011.1
20260509031344 52 201 0.0 0.0 0.00 0.01 0.01 90 1011.2
20260509030841 52 193 0.9 0.9 0.00 0.01 0.01 89 1011.4
20260509030339 52 196 0.9 0.9 0.00 0.01 0.01 89 1011.8
20260509025836 52 169 0.9 0.9 0.00 0.01 0.01 88 1011.9
20260509025331 53 223 1.7 1.7 0.00 0.01 0.01 87 1011.3
20260509024827 53 204 0.0 0.9 0.00 0.01 0.01 87 1011.3
20260509024324 53 199 0.0 0.0 0.00 0.01 0.01 87 1011.7
20260509023821 53 189 0.0 0.0 0.00 0.01 0.01 87 1011.7
20260509023318 53 207 0.0 0.0 0.00 0.01 0.01 87 1011.7
20260509022814 53 207 0.0 0.0 0.00 0.01 0.01 88 1011.4
20260509022312 52 223 0.9 0.9 0.00 0.01 0.01 90 1011.3
20260509021808 52 199 0.0 0.0 0.00 0.01 0.01 90 1011.4
20260509021306 52 210 0.0 0.9 0.00 0.01 0.01 90 1011.4
20260509020803 52 203 0.0 0.0 0.00 0.01 0.01 90 1011.8
20260509020301 52 219 0.9 0.9 0.00 0.01 0.01 90 1012.0
20260509015758 53 208 0.9 0.9 0.00 0.01 0.01 90 1011.8
20260509015257 52 202 0.0 0.0 0.00 0.01 0.01 91 1011.8
20260509014753 52 203 0.0 0.0 0.00 0.01 0.01 91 1011.9
20260509014250 52 208 0.0 0.0 0.00 0.01 0.01 91 1011.8
20260509013746 53 193 2.6 2.6 0.00 0.01 0.01 90 1011.3
20260509013242 53 202 0.0 0.0 0.00 0.01 0.01 90 1011.3
20260509012739 53 199 0.0 0.0 0.00 0.01 0.01 90 1011.2
20260509012235 52 194 0.0 0.0 0.00 0.01 0.01 90 1011.2
20260509011733 52 202 0.0 0.0 0.00 0.01 0.01 90 1011.2
20260509011231 52 201 0.0 0.0 0.00 0.01 0.01 90 1011.2
20260509010728 53 210 0.9 0.9 0.00 0.01 0.01 90 1011.1
20260509010225 53 206 0.0 0.0 0.00 0.01 0.01 90 1011.0
20260509005722 53 199 0.0 0.0 0.00 0.01 0.01 88 1011.1
20260509005220 53 196 0.0 0.0 0.00 0.01 0.01 87 1010.9
20260509004719 53 195 0.0 0.0 0.00 0.01 0.01 87 1011.1
20260509004217 53 203 0.0 0.0 0.00 0.01 0.01 88 1011.1
20260509003715 53 208 0.0 0.9 0.00 0.01 0.01 87 1010.9
20260509003213 53 205 0.0 0.9 0.00 0.01 0.01 87 1011.1
20260509002709 54 224 0.9 0.9 0.00 0.01 0.01 87 1011.1
20260509002207 54 201 0.0 0.0 0.00 0.01 0.01 84 1011.1
20260509001705 54 201 0.0 0.0 0.00 0.01 0.01 84 1011.1
20260509001200 54 203 0.0 0.0 0.00 0.01 0.01 83 1011.1
20260509000659 54 208 0.0 0.9 0.00 0.01 0.01 85 1011.2
20260509000155 54 204 0.9 0.9 0.00 0.01 0.01 83 1010.8
20260508235652 54 200 0.0 0.0 0.00 0.01 0.01 83 1010.9
20260508235149 55 203 0.0 0.0 0.00 0.01 0.01 83 1010.9
20260508234646 55 205 0.0 0.0 0.00 0.01 0.01 81 1010.8
20260508234142 55 203 0.0 0.0 0.00 0.01 0.01 80 1010.8
20260508233642 55 202 0.0 0.0 0.00 0.01 0.01 79 1011.0
20260508233139 55 203 0.0 0.0 0.00 0.01 0.01 78 1010.7
20260508232636 56 203 0.0 0.0 0.00 0.01 0.01 78 1010.7
20260508232133 56 203 0.0 0.0 0.00 0.01 0.01 78 1010.7
20260508231631 56 203 0.0 0.0 0.00 0.01 0.01 79 1010.6
20260508231127 56 207 0.0 0.0 0.00 0.01 0.01 78 1010.6
20260508230624 57 205 0.0 0.9 0.00 0.01 0.01 75 1010.3
20260508230121 57 207 0.9 0.9 0.00 0.01 0.01 71 1010.5
20260508225619 58 193 0.0 0.0 0.00 0.01 0.01 71 1010.3
20260508225115 58 200 1.7 1.7 0.00 0.01 0.01 70 1010.4
20260508224613 58 199 0.0 0.0 0.00 0.01 0.01 72 1010.3
20260508224110 57 190 0.0 0.9 0.00 0.01 0.01 74 1010.5
20260508223608 57 162 1.7 2.6 0.00 0.01 0.01 76 1010.7
20260508223105 56 224 1.7 1.7 0.00 0.01 0.01 75 1010.5
20260508222602 56 202 0.0 0.0 0.00 0.01 0.01 80 1010.6
20260508222059 55 208 0.0 0.9 0.00 0.01 0.01 78 1010.6
20260508221555 55 204 0.0 0.0 0.00 0.01 0.01 80 1010.8
20260508221051 55 206 0.9 0.9 0.00 0.01 0.01 80 1010.8
20260508220548 55 204 0.0 0.9 0.00 0.01 0.01 83 1010.8
20260508220044 55 203 0.0 0.0 0.00 0.01 0.01 82 1010.8
20260508215541 55 203 0.0 0.0 0.00 0.01 0.01 81 1010.7
20260508215038 56 203 0.0 0.0 0.00 0.01 0.01 79 1010.5
20260508214535 56 195 0.0 0.0 0.00 0.01 0.01 75 1010.4
20260508214031 56 201 0.0 0.0 0.00 0.01 0.01 75 1010.5
20260508213529 56 199 0.9 0.9 0.00 0.01 0.01 75 1010.2
20260508213024 57 200 0.0 0.0 0.00 0.01 0.01 77 1010.4
20260508212521 56 158 0.9 1.7 0.05 0.01 0.01 76 1010.6
20260508212017 55 207 0.9 0.9 0.05 0.01 0.01 78 1010.7
20260508211513 55 196 0.0 0.0 0.00 0.00 0.00 78 1010.8
20260508211010 55 221 2.6 2.6 0.00 0.00 0.00 77 1010.7
20260508210506 55 213 3.5 4.3 0.00 0.00 0.00 75 1010.8
20260508210004 55 160 3.5 4.3 0.00 0.00 0.00 74 1010.9
20260508205500 56 192 3.5 5.2 0.00 0.00 0.00 72 1010.8
20260508204956 58 211 5.2 7.8 0.00 0.00 0.00 66 1011.1
20260508204454 60 214 4.3 5.2 0.00 0.00 0.00 53 1010.6
20260508203949 61 200 7.0 7.8 0.00 0.00 0.00 50 1010.1
20260508203445 62 215 3.5 4.3 0.00 0.00 0.00 49 1010.1
20260508202941 62 223 2.6 2.6 0.00 0.00 0.00 48 1009.9
20260508202439 62 228 3.5 4.3 0.00 0.00 0.00 46 1009.9
20260508201936 62 210 5.2 6.1 0.00 0.00 0.00 45 1010.1
20260508201432 63 237 4.3 5.2 0.00 0.00 0.00 46 1010.0
20260508200929 62 187 6.1 7.0 0.00 0.00 0.00 45 1010.2
20260508200426 62 223 3.5 6.1 0.00 0.00 0.00 47 1010.2
20260508195921 62 222 6.1 7.8 0.00 0.00 0.00 46 1010.5
20260508195419 62 226 6.1 7.8 0.00 0.00 0.00 45 1010.5
20260508194914 62 201 3.5 4.3 0.00 0.00 0.00 45 1010.4
20260508194412 62 202 3.5 5.2 0.00 0.00 0.00 44 1010.4
20260508193909 63 238 2.6 4.3 0.00 0.00 0.00 43 1010.0
20260508193406 63 198 3.5 5.2 0.00 0.00 0.00 43 1009.9
20260508192902 64 202 0.9 1.7 0.00 0.00 0.00 44 1009.9
20260508192359 64 197 1.7 2.6 0.00 0.00 0.00 40 1010.1
20260508191856 64 226 2.6 2.6 0.00 0.00 0.00 46 1010.0
20260508191353 64 14 2.6 2.6 0.00 0.00 0.00 41 1009.9
20260508190850 64 183 0.9 1.7 0.00 0.00 0.00 43 1010.0
20260508190347 64 205 3.5 5.2 0.00 0.00 0.00 43 1010.1
20260508185843 64 183 3.5 4.3 0.00 0.00 0.00 43 1010.2
20260508185341 64 193 2.6 2.6 0.00 0.00 0.00 42 1010.1
20260508184838 64 113 3.5 4.3 0.00 0.00 0.00 42 1010.0
20260508184335 65 207 0.0 0.9 0.00 0.00 0.00 44 1010.0
20260508183832 66 205 2.6 4.3 0.00 0.00 0.00 44 1010.0
20260508183328 66 204 2.6 4.3 0.00 0.00 0.00 41 1010.2
20260508182824 65 208 5.2 7.0 0.00 0.00 0.00 45 1010.5
20260508182321 64 233 6.1 8.7 0.00 0.00 0.00 45 1010.6
20260508181817 64 283 1.7 2.6 0.00 0.00 0.00 42 1010.8
20260508181314 64 186 6.1 8.7 0.00 0.00 0.00 45 1010.8
20260508180811 62 229 3.5 5.2 0.00 0.00 0.00 49 1010.9
20260508180308 62 238 8.7 9.6 0.00 0.00 0.00 46 1011.0
20260508175804 61 201 2.6 4.3 0.00 0.00 0.00 51 1011.2
20260508175300 61 162 4.3 5.2 0.00 0.00 0.00 48 1011.4
20260508174759 62 240 6.1 7.0 0.00 0.00 0.00 46 1011.3
20260508174256 62 225 2.6 2.6 0.00 0.00 0.00 43 1011.1
20260508173752 62 217 3.5 4.3 0.00 0.00 0.00 44 1011.1
20260508173248 62 315 3.5 4.3 0.00 0.00 0.00 44 1011.1
20260508172745 61 208 3.5 5.2 0.00 0.00 0.00 45 1011.0
20260508172242 61 236 4.3 6.1 0.00 0.00 0.00 46 1011.0
20260508171738 61 208 4.3 6.1 0.00 0.00 0.00 44 1011.0
20260508171234 60 220 5.2 7.0 0.00 0.00 0.00 47 1011.1
20260508170731 61 210 1.7 2.6 0.00 0.00 0.00 45 1011.1
20260508170229 61 256 4.3 6.1 0.00 0.00 0.00 45 1011.1
20260508165726 61 217 4.3 5.2 0.00 0.00 0.00 44 1011.0
20260508165223 62 225 7.0 7.0 0.00 0.00 0.00 43 1011.4
20260508164720 61 224 2.6 2.6 0.00 0.00 0.00 43 1011.2
20260508164216 61 192 6.1 7.0 0.00 0.00 0.00 44 1011.3